nws-alerts: Checking more than four warning/county codes can delay the loading of your pages. You should use a cron job to get the data.
EllijayWeather Station Historical Data
Daily Summary for January 3, 2019 Units:  English    Metric   Both
Daily Weekly Monthly Yearly Custom
  High: Low: Average:
Temperature: 54.0 °F 48.0 °F 50.2 °F
Dew Point: 52.9 °F 47.8 °F 49.7 °F
Humidity: 100% 92% 98%
Wind Speed: 2.9mph 0.0mph 0mph
Wind Gust: 7.0mph - -
Wind- - WNW
Pressure: 30.14 in 30.01 in -
Precipitation: 0.49 in    
Historical Graphs
 
 
Tabular Data for January 3, 2019
Time Temperature Dew Point Pressure Wind Wind Speed Wind Gust Humidity Rainfall Rate (Hourly) solar
00:04 48.7 °F 48.6 °F 30.10 in Calm   2.0 mph 99% 0.05 in meteobridge W/m2
00:09 48.7 °F 48.6 °F 30.10 in Calm   1.0 mph 99% 0.06 in meteobridge W/m2
00:14 48.7 °F 48.6 °F 30.10 in Calm     99% 0.07 in meteobridge W/m2
00:19 48.7 °F 48.6 °F 30.10 in NW 0.9 mph 2.0 mph 99% 0.08 in meteobridge W/m2
00:24 48.7 °F 48.6 °F 30.09 in Calm     99% 0.11 in meteobridge W/m2
00:29 48.7 °F 48.6 °F 30.10 in Calm   2.0 mph 99% 0.12 in meteobridge W/m2
00:34 48.6 °F 48.4 °F 30.11 in Calm     99% 0.12 in meteobridge W/m2
00:39 48.7 °F 48.6 °F 30.11 in Calm     99% 0.14 in meteobridge W/m2
00:44 48.7 °F 48.6 °F 30.12 in Calm     99% 0.17 in meteobridge W/m2
00:49 48.7 °F 48.6 °F 30.11 in Calm     99% 0.18 in meteobridge W/m2
00:54 48.7 °F 48.6 °F 30.11 in Calm     99% 0.18 in meteobridge W/m2
00:59 48.6 °F 48.4 °F 30.11 in Calm     99% 0.18 in meteobridge W/m2
01:04 48.6 °F 48.4 °F 30.11 in NW 0.9 mph 2.0 mph 99% 0.18 in meteobridge W/m2
01:09 48.6 °F 48.4 °F 30.11 in Calm     99% 0.18 in meteobridge W/m2
01:14 48.6 °F 48.4 °F 30.11 in Calm     99% 0.19 in meteobridge W/m2
01:19 48.6 °F 48.4 °F 30.11 in Calm     99% 0.19 in meteobridge W/m2
01:24 48.6 °F 48.4 °F 30.10 in Calm     99% 0.17 in meteobridge W/m2
01:29 48.6 °F 48.4 °F 30.10 in Calm     99% 0.17 in meteobridge W/m2
01:34 48.6 °F 48.4 °F 30.10 in Calm     99% 0.16 in meteobridge W/m2
01:39 48.6 °F 48.4 °F 30.10 in Calm     99% 0.15 in meteobridge W/m2
01:44 48.6 °F 48.4 °F 30.11 in Calm     99% 0.13 in meteobridge W/m2
01:49 48.6 °F 48.4 °F 30.11 in Calm     99% 0.13 in meteobridge W/m2
01:54 48.6 °F 48.4 °F 30.10 in Calm     99% 0.14 in meteobridge W/m2
01:59 48.6 °F 48.4 °F 30.10 in Calm     99% 0.14 in meteobridge W/m2
02:04 48.6 °F 48.4 °F 30.11 in Calm     99% 0.13 in meteobridge W/m2
02:09 48.6 °F 48.4 °F 30.11 in Calm     99% 0.13 in meteobridge W/m2
02:14 48.6 °F 48.4 °F 30.11 in Calm     99% 0.12 in meteobridge W/m2
02:19 48.6 °F 48.4 °F 30.10 in Calm     99% 0.11 in meteobridge W/m2
02:24 48.6 °F 48.4 °F 30.10 in Calm     99% 0.11 in meteobridge W/m2
02:29 48.6 °F 48.4 °F 30.11 in Calm     99% 0.10 in meteobridge W/m2
02:34 48.7 °F 48.6 °F 30.10 in Calm     99% 0.10 in meteobridge W/m2
02:39 48.7 °F 48.6 °F 30.10 in Calm     99% 0.09 in meteobridge W/m2
02:44 48.7 °F 48.6 °F 30.09 in Calm     99% 0.08 in meteobridge W/m2
02:49 48.6 °F 48.4 °F 30.09 in Calm     99% 0.07 in meteobridge W/m2
02:54 48.6 °F 48.4 °F 30.09 in Calm     99% 0.05 in meteobridge W/m2
02:59 48.7 °F 48.6 °F 30.09 in Calm     99% 0.04 in meteobridge W/m2
03:04 48.6 °F 48.4 °F 30.10 in Calm     99% 0.04 in meteobridge W/m2
03:09 48.7 °F 48.6 °F 30.10 in Calm     99% 0.03 in meteobridge W/m2
03:14 48.6 °F 48.4 °F 30.10 in Calm     99% 0.02 in meteobridge W/m2
03:19 48.7 °F 48.6 °F 30.10 in Calm     99% 0.02 in meteobridge W/m2
03:24 48.7 °F 48.6 °F 30.12 in Calm   1.0 mph 99% 0.01 in meteobridge W/m2
03:29 48.7 °F 48.6 °F 30.10 in Calm     99% 0.01 in meteobridge W/m2
03:34 48.6 °F 48.4 °F 30.12 in Calm     99% 0.01 in meteobridge W/m2
03:39 48.7 °F 48.6 °F 30.11 in Calm     99% 0.01 in meteobridge W/m2
03:44 48.6 °F 48.4 °F 30.11 in Calm     99% 0.01 in meteobridge W/m2
03:49 48.6 °F 48.4 °F 30.11 in Calm     99% 0.00 in meteobridge W/m2
03:54 48.6 °F 48.4 °F 30.10 in Calm     99% 0.00 in meteobridge W/m2
03:59 48.6 °F 48.4 °F 30.10 in Calm     99% 0.00 in meteobridge W/m2
04:04 48.4 °F 48.2 °F 30.10 in Calm     99% 0.00 in meteobridge W/m2
04:09 48.4 °F 48.2 °F 30.10 in Calm     99% 0.00 in meteobridge W/m2
04:14 48.4 °F 48.2 °F 30.10 in Calm     99% 0.01 in meteobridge W/m2
04:19 48.4 °F 48.2 °F 30.09 in Calm     99% 0.01 in meteobridge W/m2
04:24 48.4 °F 48.2 °F 30.09 in Calm     99% 0.01 in meteobridge W/m2
04:29 48.4 °F 48.2 °F 30.09 in Calm     99% 0.01 in meteobridge W/m2
04:34 48.2 °F 48.0 °F 30.09 in Calm     99% 0.01 in meteobridge W/m2
04:39 48.2 °F 48.0 °F 30.09 in Calm     99% 0.01 in meteobridge W/m2
04:44 48.2 °F 48.0 °F 30.09 in Calm     99% 0.02 in meteobridge W/m2
04:49 48.0 °F 47.8 °F 30.09 in Calm     99% 0.02 in meteobridge W/m2
04:54 48.2 °F 48.0 °F 30.08 in Calm     99% 0.02 in meteobridge W/m2
04:59 48.2 °F 48.0 °F 30.08 in Calm     99% 0.02 in meteobridge W/m2
05:04 48.2 °F 48.0 °F 30.08 in Calm     99% 0.02 in meteobridge W/m2
05:09 48.0 °F 47.8 °F 30.07 in Calm     99% 0.02 in meteobridge W/m2
05:14 48.2 °F 48.0 °F 30.07 in Calm     99% 0.01 in meteobridge W/m2
05:19 48.2 °F 48.0 °F 30.07 in Calm     99% 0.01 in meteobridge W/m2
05:24 48.2 °F 48.0 °F 30.07 in Calm     99% 0.01 in meteobridge W/m2
05:29 48.2 °F 48.0 °F 30.07 in Calm     99% 0.01 in meteobridge W/m2
05:34 48.4 °F 48.2 °F 30.06 in Calm     99% 0.01 in meteobridge W/m2
05:39 48.4 °F 48.2 °F 30.06 in Calm     99% 0.01 in meteobridge W/m2
05:44 48.4 °F 48.2 °F 30.06 in Calm     99% 0.00 in meteobridge W/m2
05:49 48.4 °F 48.2 °F 30.06 in Calm     99% 0.00 in meteobridge W/m2
05:54 48.4 °F 48.4 °F 30.06 in Calm     100% 0.00 in meteobridge W/m2
05:59 48.4 °F 48.2 °F 30.06 in Calm     99% 0.00 in meteobridge W/m2
06:04 48.6 °F 48.4 °F 30.06 in Calm     99% 0.01 in meteobridge W/m2
06:09 48.4 °F 48.4 °F 30.06 in Calm     100% 0.01 in meteobridge W/m2
06:14 48.4 °F 48.4 °F 30.06 in Calm     100% 0.01 in meteobridge W/m2
06:19 48.4 °F 48.2 °F 30.06 in Calm     99% 0.01 in meteobridge W/m2
06:24 48.4 °F 48.4 °F 30.05 in Calm     100% 0.01 in meteobridge W/m2
06:29 48.4 °F 48.4 °F 30.06 in Calm     100% 0.01 in meteobridge W/m2
06:34 48.4 °F 48.4 °F 30.06 in Calm     100% 0.02 in meteobridge W/m2
06:39 48.4 °F 48.4 °F 30.06 in Calm     100% 0.02 in meteobridge W/m2
06:44 48.4 °F 48.4 °F 30.06 in Calm     100% 0.02 in meteobridge W/m2
06:49 48.2 °F 48.0 °F 30.07 in Calm     99% 0.02 in meteobridge W/m2
06:54 48.2 °F 48.0 °F 30.06 in Calm     99% 0.02 in meteobridge W/m2
06:59 48.2 °F 48.0 °F 30.07 in Calm     99% 0.02 in meteobridge W/m2
07:04 48.4 °F 48.2 °F 30.07 in Calm     99% 0.02 in meteobridge W/m2
07:09 48.4 °F 48.2 °F 30.08 in Calm     99% 0.02 in meteobridge W/m2
07:14 48.4 °F 48.2 °F 30.08 in Calm     99% 0.02 in meteobridge W/m2
07:19 48.2 °F 48.0 °F 30.09 in Calm     99% 0.03 in meteobridge W/m2
07:24 48.4 °F 48.2 °F 30.09 in Calm     99% 0.03 in meteobridge W/m2
07:29 48.4 °F 48.2 °F 30.08 in Calm     99% 0.03 in meteobridge W/m2
07:34 48.4 °F 48.2 °F 30.08 in Calm     99% 0.02 in meteobridge W/m2
07:39 48.2 °F 48.0 °F 30.09 in Calm   1.0 mph 99% 0.02 in meteobridge W/m2
07:44 48.2 °F 48.0 °F 30.09 in Calm     99% 0.02 in meteobridge W/m2
07:49 48.2 °F 48.0 °F 30.09 in Calm     99% 0.03 in meteobridge W/m2
07:54 48.0 °F 47.8 °F 30.09 in Calm     99% 0.03 in meteobridge W/m2
07:59 48.0 °F 47.8 °F 30.09 in Calm     99% 0.03 in meteobridge W/m2
08:04 48.0 °F 47.8 °F 30.09 in Calm     99% 0.02 in meteobridge W/m2
08:09 48.0 °F 47.8 °F 30.09 in Calm     99% 0.02 in meteobridge W/m2
08:14 48.0 °F 47.8 °F 30.09 in Calm     99% 0.02 in meteobridge W/m2
08:19 48.0 °F 48.0 °F 30.09 in Calm     100% 0.01 in meteobridge W/m2
08:24 48.0 °F 47.8 °F 30.09 in Calm     99% 0.01 in meteobridge W/m2
08:29 48.0 °F 48.0 °F 30.09 in Calm     100% 0.01 in meteobridge W/m2
08:34 48.2 °F 48.2 °F 30.08 in Calm     100% 0.01 in meteobridge W/m2
08:39 48.2 °F 48.2 °F 30.08 in Calm     100% 0.01 in meteobridge W/m2
08:44 48.2 °F 48.0 °F 30.08 in Calm     99% 0.02 in meteobridge W/m2
08:49 48.2 °F 48.2 °F 30.08 in Calm     100% 0.01 in meteobridge W/m2
08:54 48.4 °F 48.4 °F 30.07 in Calm     100% 0.01 in meteobridge W/m2
08:59 48.4 °F 48.4 °F 30.09 in Calm     100% 0.01 in meteobridge W/m2
09:04 48.6 °F 48.6 °F 30.08 in Calm     100% 0.01 in meteobridge W/m2
09:09 48.6 °F 48.6 °F 30.08 in Calm     100% 0.01 in meteobridge W/m2
09:14 48.6 °F 48.6 °F 30.08 in Calm     100% 0.01 in meteobridge W/m2
09:19 48.6 °F 48.6 °F 30.08 in Calm     100% 0.01 in meteobridge W/m2
09:24 48.6 °F 48.6 °F 30.09 in Calm     100% 0.01 in meteobridge W/m2
09:29 48.6 °F 48.6 °F 30.09 in Calm     100% 0.01 in meteobridge W/m2
09:34 48.7 °F 48.7 °F 30.09 in Calm     100% 0.01 in meteobridge W/m2
09:39 48.7 °F 48.7 °F 30.09 in Calm     100% 0.01 in meteobridge W/m2
09:44 48.7 °F 48.7 °F 30.09 in Calm     100% 0.00 in meteobridge W/m2
09:49 48.9 °F 48.9 °F 30.10 in Calm     100% 0.00 in meteobridge W/m2
09:54 49.1 °F 49.1 °F 30.11 in Calm     100% 0.00 in meteobridge W/m2
09:59 49.3 °F 49.3 °F 30.11 in Calm     100% 0.00 in meteobridge W/m2
10:04 49.3 °F 49.3 °F 30.11 in Calm     100% 0.00 in meteobridge W/m2
10:09 49.5 °F 49.5 °F 30.11 in Calm     100% 0.00 in meteobridge W/m2
10:14 49.6 °F 49.6 °F 30.12 in Calm     100% 0.00 in meteobridge W/m2
10:19 49.6 °F 49.6 °F 30.12 in Calm     100% 0.00 in meteobridge W/m2
10:24 49.8 °F 49.8 °F 30.13 in Calm     100% 0.00 in meteobridge W/m2
10:29 50.2 °F 50.2 °F 30.13 in Calm   4.0 mph 100% 0.00 in meteobridge W/m2
10:34 50.0 °F 50.0 °F 30.14 in Calm   3.0 mph 100% 0.00 in meteobridge W/m2
10:39 50.0 °F 50.0 °F 30.14 in Calm     100% 0.00 in meteobridge W/m2
10:44 50.2 °F 50.2 °F 30.14 in Calm     100% 0.00 in meteobridge W/m2
10:49 50.0 °F 49.6 °F 30.13 in ENE 0.9 mph 2.0 mph 99% 0.00 in meteobridge W/m2
10:54 50.2 °F 49.8 °F 30.11 in Calm     99% 0.00 in meteobridge W/m2
10:59 50.2 °F 49.8 °F 30.12 in Calm     99% 0.00 in meteobridge W/m2
11:04 50.2 °F 49.8 °F 30.11 in Calm   3.0 mph 99% 0.00 in meteobridge W/m2
11:09 50.4 °F 50.0 °F 30.11 in Calm   2.0 mph 99% 0.00 in meteobridge W/m2
11:14 50.5 °F 50.2 °F 30.11 in Calm   1.0 mph 99% 0.00 in meteobridge W/m2
11:19 50.7 °F 50.4 °F 30.11 in Calm     99% 0.00 in meteobridge W/m2
11:23 50.7 °F 50.4 °F 30.11 in NW 2.0 mph 3.0 mph 99% 0.00 in meteobridge W/m2
11:29 50.9 °F 50.5 °F 30.10 in Calm   1.0 mph 99% 0.00 in meteobridge W/m2
11:34 51.1 °F 50.7 °F 30.10 in Calm     99% 0.00 in meteobridge W/m2
11:39 51.1 °F 50.7 °F 30.09 in NW 2.0 mph 3.0 mph 99% 0.00 in meteobridge W/m2
11:43 51.1 °F 50.7 °F 30.09 in Calm   4.0 mph 99% 0.00 in meteobridge W/m2
11:49 51.3 °F 50.4 °F 30.09 in Calm   7.0 mph 97% 0.00 in meteobridge W/m2
11:54 51.3 °F 50.4 °F 30.09 in Calm   3.0 mph 97% 0.00 in meteobridge W/m2
11:59 51.1 °F 50.2 °F 30.08 in Calm   4.0 mph 97% 0.00 in meteobridge W/m2
12:04 51.1 °F 50.2 °F 30.07 in Calm   2.0 mph 97% 0.00 in meteobridge W/m2
12:09 51.1 °F 50.5 °F 30.06 in Calm     98% 0.00 in meteobridge W/m2
12:14 51.3 °F 50.7 °F 30.06 in Calm     98% 0.00 in meteobridge W/m2
12:19 51.4 °F 50.9 °F 30.06 in Calm     98% 0.00 in meteobridge W/m2
12:24 51.4 °F 51.1 °F 30.06 in Calm     99% 0.00 in meteobridge W/m2
12:29 52.0 °F 51.6 °F 30.06 in Calm     99% 0.00 in meteobridge W/m2
12:34 52.2 °F 51.6 °F 30.06 in Calm     98% 0.00 in meteobridge W/m2
12:39 52.3 °F 51.8 °F 30.06 in Calm     98% 0.00 in meteobridge W/m2
12:44 52.5 °F 52.0 °F 30.05 in Calm     98% 0.00 in meteobridge W/m2
12:49 52.9 °F 52.0 °F 30.05 in Calm     97% 0.00 in meteobridge W/m2
12:54 52.9 °F 52.3 °F 30.04 in Calm     98% 0.00 in meteobridge W/m2
12:59 52.9 °F 52.0 °F 30.05 in Calm     97% 0.00 in meteobridge W/m2
13:04 53.1 °F 52.5 °F 30.05 in Calm   3.0 mph 98% 0.00 in meteobridge W/m2
13:09 52.9 °F 52.3 °F 30.05 in Calm   3.0 mph 98% 0.00 in meteobridge W/m2
13:14 52.9 °F 51.8 °F 30.05 in NNW 2.9 mph 3.0 mph 96% 0.00 in meteobridge W/m2
13:19 52.5 °F 51.4 °F 30.06 in Calm     96% 0.00 in meteobridge W/m2
13:24 52.5 °F 51.1 °F 30.05 in Calm     95% 0.00 in meteobridge W/m2
13:29 52.5 °F 51.4 °F 30.05 in NNW 0.9 mph 2.0 mph 96% 0.00 in meteobridge W/m2
13:34 52.5 °F 51.6 °F 30.06 in Calm   1.0 mph 97% 0.00 in meteobridge W/m2
13:39 52.7 °F 51.3 °F 30.06 in Calm   2.0 mph 95% 0.00 in meteobridge W/m2
13:44 52.7 °F 51.8 °F 30.05 in Calm     97% 0.00 in meteobridge W/m2
13:49 52.9 °F 52.0 °F 30.05 in Calm   1.0 mph 97% 0.00 in meteobridge W/m2
13:54 53.1 °F 52.0 °F 30.06 in Calm     96% 0.00 in meteobridge W/m2
13:59 53.2 °F 51.6 °F 30.06 in Calm   2.0 mph 94% 0.00 in meteobridge W/m2
14:04 53.4 °F 51.8 °F 30.05 in Calm   2.0 mph 94% 0.00 in meteobridge W/m2
14:09 53.6 °F 51.6 °F 30.06 in Calm   2.0 mph 93% 0.00 in meteobridge W/m2
14:14 53.8 °F 51.8 °F 30.06 in Calm   5.0 mph 93% 0.00 in meteobridge W/m2
14:19 53.8 °F 52.2 °F 30.05 in Calm     94% 0.00 in meteobridge W/m2
14:24 53.6 °F 52.0 °F 30.04 in Calm   1.0 mph 94% 0.00 in meteobridge W/m2
14:29 53.6 °F 52.0 °F 30.03 in Calm     94% 0.00 in meteobridge W/m2
14:34 53.6 °F 52.0 °F 30.03 in Calm     94% 0.00 in meteobridge W/m2
14:39 53.6 °F 51.6 °F 30.03 in Calm     93% 0.00 in meteobridge W/m2
14:44 53.6 °F 52.5 °F 30.04 in Calm   1.0 mph 96% 0.00 in meteobridge W/m2
14:49 53.8 °F 52.3 °F 30.04 in Calm     95% 0.00 in meteobridge W/m2
14:54 53.8 °F 52.2 °F 30.03 in WNW 0.9 mph 1.0 mph 94% 0.00 in meteobridge W/m2
14:59 53.6 °F 51.3 °F 30.04 in Calm     92% 0.00 in meteobridge W/m2
15:04 53.6 °F 51.6 °F 30.04 in Calm   3.0 mph 93% 0.00 in meteobridge W/m2
15:09 53.6 °F 52.2 °F 30.04 in Calm   2.0 mph 95% 0.00 in meteobridge W/m2
15:14 53.6 °F 52.2 °F 30.04 in Calm     95% 0.00 in meteobridge W/m2
15:19 53.4 °F 51.1 °F 30.05 in Calm     92% 0.00 in meteobridge W/m2
15:24 53.4 °F 51.4 °F 30.05 in Calm     93% 0.00 in meteobridge W/m2
15:29 53.4 °F 52.0 °F 30.04 in Calm     95% 0.00 in meteobridge W/m2
15:34 53.4 °F 52.0 °F 30.04 in Calm     95% 0.00 in meteobridge W/m2
15:39 53.4 °F 52.3 °F 30.04 in Calm     96% 0.00 in meteobridge W/m2
15:44 53.4 °F 52.5 °F 30.04 in Calm     97% 0.00 in meteobridge W/m2
15:49 53.6 °F 52.7 °F 30.05 in Calm     97% 0.00 in meteobridge W/m2
15:54 53.8 °F 52.9 °F 30.05 in Calm     97% 0.00 in meteobridge W/m2
15:59 53.8 °F 52.7 °F 30.05 in Calm   1.0 mph 96% 0.00 in meteobridge W/m2
16:04 53.8 °F 52.7 °F 30.04 in Calm     96% 0.00 in meteobridge W/m2
16:09 53.8 °F 52.7 °F 30.05 in Calm   1.0 mph 96% 0.00 in meteobridge W/m2
16:14 54.0 °F 52.5 °F 30.05 in Calm     95% 0.00 in meteobridge W/m2
16:19 53.8 °F 52.7 °F 30.05 in Calm     96% 0.00 in meteobridge W/m2
16:24 53.8 °F 52.2 °F 30.05 in Calm     94% 0.00 in meteobridge W/m2
16:29 53.8 °F 52.7 °F 30.04 in Calm     96% 0.00 in meteobridge W/m2
16:34 53.6 °F 52.5 °F 30.04 in Calm     96% 0.00 in meteobridge W/m2
16:39 53.4 °F 52.3 °F 30.04 in Calm     96% 0.00 in meteobridge W/m2
16:44 53.4 °F 52.3 °F 30.04 in Calm     96% 0.00 in meteobridge W/m2
16:49 53.4 °F 52.5 °F 30.03 in Calm     97% 0.00 in meteobridge W/m2
16:54 53.2 °F 52.2 °F 30.03 in Calm     96% 0.00 in meteobridge W/m2
16:59 53.1 °F 52.0 °F 30.04 in Calm     96% 0.00 in meteobridge W/m2
17:04 53.1 °F 52.2 °F 30.04 in Calm     97% 0.00 in meteobridge W/m2
17:09 52.9 °F 52.0 °F 30.04 in Calm     97% 0.00 in meteobridge W/m2
17:14 52.9 °F 52.0 °F 30.05 in Calm     97% 0.00 in meteobridge W/m2
17:19 52.7 °F 51.8 °F 30.05 in Calm     97% 0.00 in meteobridge W/m2
17:24 52.5 °F 51.6 °F 30.05 in Calm     97% 0.00 in meteobridge W/m2
17:29 52.5 °F 51.6 °F 30.06 in Calm     97% 0.00 in meteobridge W/m2
17:34 52.3 °F 51.4 °F 30.05 in Calm     97% 0.00 in meteobridge W/m2
17:39 52.3 °F 51.4 °F 30.06 in Calm     97% 0.00 in meteobridge W/m2
17:44 52.2 °F 51.3 °F 30.05 in Calm     97% 0.00 in meteobridge W/m2
17:49 52.2 °F 51.3 °F 30.05 in Calm     97% 0.00 in meteobridge W/m2
17:54 52.0 °F 51.4 °F 30.06 in Calm     98% 0.00 in meteobridge W/m2
17:59 51.8 °F 51.3 °F 30.05 in Calm     98% 0.00 in meteobridge W/m2
18:04 51.6 °F 51.1 °F 30.05 in Calm     98% 0.00 in meteobridge W/m2
18:09 51.6 °F 50.7 °F 30.05 in Calm     97% 0.00 in meteobridge W/m2
18:14 51.4 °F 50.9 °F 30.05 in Calm     98% 0.00 in meteobridge W/m2
18:19 51.4 °F 50.9 °F 30.05 in Calm     98% 0.00 in meteobridge W/m2
18:24 51.3 °F 50.7 °F 30.05 in Calm     98% 0.00 in meteobridge W/m2
18:29 51.3 °F 50.7 °F 30.05 in Calm     98% 0.00 in meteobridge W/m2
18:34 51.3 °F 50.7 °F 30.05 in Calm     98% 0.00 in meteobridge W/m2
18:39 51.1 °F 50.5 °F 30.06 in Calm     98% 0.00 in meteobridge W/m2
18:44 51.1 °F 50.5 °F 30.05 in Calm     98% 0.00 in meteobridge W/m2
18:49 50.9 °F 50.4 °F 30.06 in Calm     98% 0.00 in meteobridge W/m2
18:54 50.9 °F 50.4 °F 30.06 in Calm     98% 0.00 in meteobridge W/m2
18:59 50.7 °F 50.2 °F 30.06 in Calm     98% 0.00 in meteobridge W/m2
19:04 50.7 °F 50.2 °F 30.06 in Calm     98% 0.00 in meteobridge W/m2
19:09 50.5 °F 50.0 °F 30.06 in Calm     98% 0.00 in meteobridge W/m2
19:14 50.5 °F 50.0 °F 30.06 in Calm     98% 0.00 in meteobridge W/m2
19:19 50.5 °F 50.0 °F 30.07 in Calm     98% 0.00 in meteobridge W/m2
19:24 50.5 °F 50.0 °F 30.07 in Calm     98% 0.00 in meteobridge W/m2
19:29 50.4 °F 50.0 °F 30.06 in Calm     99% 0.00 in meteobridge W/m2
19:34 50.4 °F 50.0 °F 30.07 in Calm     99% 0.00 in meteobridge W/m2
19:39 50.4 °F 49.8 °F 30.07 in Calm     98% 0.00 in meteobridge W/m2
19:44 50.4 °F 50.0 °F 30.07 in Calm     99% 0.00 in meteobridge W/m2
19:49 50.2 °F 49.8 °F 30.07 in Calm     99% 0.00 in meteobridge W/m2
19:54 50.2 °F 49.8 °F 30.07 in Calm     99% 0.00 in meteobridge W/m2
19:59 50.2 °F 49.8 °F 30.06 in Calm     99% 0.00 in meteobridge W/m2
20:04 50.2 °F 49.8 °F 30.07 in Calm     99% 0.00 in meteobridge W/m2
20:09 50.0 °F 49.6 °F 30.07 in Calm     99% 0.00 in meteobridge W/m2
20:14 50.0 °F 49.6 °F 30.07 in Calm     99% 0.00 in meteobridge W/m2
20:19 50.0 °F 49.6 °F 30.06 in Calm     99% 0.00 in meteobridge W/m2
20:24 50.0 °F 49.6 °F 30.06 in Calm     99% 0.00 in meteobridge W/m2
20:29 50.0 °F 49.6 °F 30.06 in Calm     99% 0.00 in meteobridge W/m2
20:34 49.8 °F 49.5 °F 30.06 in Calm     99% 0.00 in meteobridge W/m2
20:39 49.8 °F 49.5 °F 30.06 in Calm     99% 0.00 in meteobridge W/m2
20:44 49.8 °F 49.5 °F 30.06 in Calm     99% 0.00 in meteobridge W/m2
20:49 49.8 °F 49.5 °F 30.05 in Calm     99% 0.00 in meteobridge W/m2
20:54 49.8 °F 49.5 °F 30.05 in Calm     99% 0.00 in meteobridge W/m2
20:59 49.6 °F 49.5 °F 30.05 in Calm     99% 0.00 in meteobridge W/m2
21:04 49.6 °F 49.5 °F 30.05 in Calm     99% 0.00 in meteobridge W/m2
21:09 49.6 °F 49.5 °F 30.04 in Calm     99% 0.00 in meteobridge W/m2
21:14 49.6 °F 49.5 °F 30.04 in Calm     99% 0.00 in meteobridge W/m2
21:19 49.6 °F 49.5 °F 30.03 in Calm     99% 0.00 in meteobridge W/m2
21:24 49.6 °F 49.5 °F 30.03 in Calm     99% 0.00 in meteobridge W/m2
21:29 49.6 °F 49.5 °F 30.03 in Calm     99% 0.00 in meteobridge W/m2
21:34 49.6 °F 49.5 °F 30.03 in Calm     99% 0.00 in meteobridge W/m2
21:39 49.6 °F 49.5 °F 30.03 in Calm     99% 0.00 in meteobridge W/m2
21:44 49.6 °F 49.5 °F 30.03 in Calm     99% 0.00 in meteobridge W/m2
21:49 49.6 °F 49.5 °F 30.03 in Calm     99% 0.00 in meteobridge W/m2
21:54 49.6 °F 49.5 °F 30.03 in Calm     99% 0.00 in meteobridge W/m2
21:59 49.6 °F 49.5 °F 30.03 in Calm     99% 0.00 in meteobridge W/m2
22:04 49.6 °F 49.5 °F 30.03 in Calm     99% 0.00 in meteobridge W/m2
22:09 49.6 °F 49.5 °F 30.03 in Calm     99% 0.00 in meteobridge W/m2
22:14 49.6 °F 49.5 °F 30.03 in Calm     99% 0.01 in meteobridge W/m2
22:19 49.8 °F 49.5 °F 30.03 in Calm     99% 0.01 in meteobridge W/m2
22:24 49.8 °F 49.5 °F 30.03 in Calm     99% 0.01 in meteobridge W/m2
22:29 49.8 °F 49.5 °F 30.03 in Calm     99% 0.01 in meteobridge W/m2
22:34 49.8 °F 49.5 °F 30.04 in Calm     99% 0.01 in meteobridge W/m2
22:39 49.8 °F 49.5 °F 30.03 in NW 0.9 mph 1.0 mph 99% 0.01 in meteobridge W/m2
22:44 50.0 °F 49.6 °F 30.03 in NW 0.9 mph 1.0 mph 99% 0.01 in meteobridge W/m2
22:49 50.0 °F 49.6 °F 30.03 in Calm     99% 0.01 in meteobridge W/m2
22:54 50.0 °F 49.6 °F 30.03 in Calm     99% 0.02 in meteobridge W/m2
22:59 50.0 °F 50.0 °F 30.03 in Calm     100% 0.02 in meteobridge W/m2
23:04 50.0 °F 49.6 °F 30.03 in Calm     99% 0.02 in meteobridge W/m2
23:09 50.2 °F 49.8 °F 30.03 in Calm     99% 0.02 in meteobridge W/m2
23:14 50.0 °F 49.6 °F 30.03 in Calm     99% 0.02 in meteobridge W/m2
23:19 50.0 °F 49.6 °F 30.03 in Calm     99% 0.02 in meteobridge W/m2
23:24 50.0 °F 49.6 °F 30.03 in Calm     99% 0.02 in meteobridge W/m2
23:29 50.0 °F 49.6 °F 30.03 in Calm     99% 0.02 in meteobridge W/m2
23:34 49.8 °F 49.5 °F 30.02 in Calm     99% 0.02 in meteobridge W/m2
23:39 49.8 °F 49.5 °F 30.02 in Calm     99% 0.03 in meteobridge W/m2
23:44 49.8 °F 49.5 °F 30.02 in Calm     99% 0.03 in meteobridge W/m2
23:49 50.0 °F 49.6 °F 30.02 in Calm     99% 0.03 in meteobridge W/m2
23:54 49.8 °F 49.5 °F 30.02 in Calm     99% 0.03 in meteobridge W/m2
23:59 49.8 °F 49.5 °F 30.01 in Calm     99% 0.03 in meteobridge W/m2
EllijayWeather
Compliments of Weather Underground - 2.5 mb